IV3ONZ Weather Reports


time (UTC)temp
C
wind
direction
speed
KPH
gust
KPH
rain 1hr
cm
rain 24hr
cm
rain mn
cm
humidity
%
barometer
mb
20260507225503 13 80 0.0 3.2 0.00 0.00 0.00 88 1018.9
20260507225003 13 78 0.0 3.2 0.00 0.00 0.00 88 1019.0
20260507224504 13 88 1.6 9.7 0.00 0.00 0.00 88 1018.9
20260507224004 13 91 1.6 9.7 0.00 0.00 0.00 88 1019.0
20260507223714 13 88 1.6 9.7 0.00 0.00 0.00 88 1019.1
20260507223212 13 95 0.0 1.6 0.00 0.00 0.00 89 1019.0
20260507222715 13 95 0.0 3.2 0.00 0.00 0.00 89 1019.1
20260507222004 13 89 1.6 3.2 0.00 0.00 0.00 89 1018.9
20260507221503 13 89 0.0 3.2 0.00 0.00 0.00 89 1019.0
20260507221003 13 73 1.6 4.8 0.00 0.00 0.00 89 1019.1
20260507220503 13 67 1.6 4.8 0.00 0.00 0.00 89 1019.0
20260507220004 13 0 0.0 0.0 0.00 0.00 0.00 89 1018.9
20260507215718 13 0 0.0 0.0 0.00 0.00 0.00 90 1018.9
20260507215216 13 0 0.0 0.0 0.00 0.00 0.00 90 1019.0
20260507214503 13 111 0.0 3.2 0.00 0.00 0.00 91 1019.1
20260507214217 13 110 1.6 3.2 0.00 0.00 0.00 91 1018.9
20260507213715 13 111 1.6 3.2 0.00 0.00 0.00 91 1018.8
20260507213003 13 107 1.6 3.2 0.00 0.00 0.00 91 1018.7
20260507212503 13 90 3.2 4.8 0.00 0.00 0.00 91 1019.0
20260507212003 13 88 3.2 4.8 0.00 0.00 0.00 91 1018.8
20260507211503 13 86 1.6 4.8 0.00 0.00 0.00 91 1018.7
20260507211003 13 81 1.6 3.2 0.00 0.00 0.00 91 1019.0
20260507210503 13 83 0.0 3.2 0.00 0.00 0.00 91 1018.8
20260507210004 13 84 0.0 3.2 0.00 0.00 0.00 91 1018.7
20260507205503 13 0 0.0 0.0 0.00 0.00 0.00 91 1018.8
20260507205003 13 83 0.0 3.2 0.00 0.00 0.00 91 1018.8
20260507204504 13 84 0.0 3.2 0.00 0.00 0.00 91 1018.6
20260507204003 13 83 0.0 3.2 0.00 0.00 0.00 91 1018.7
20260507203503 13 77 1.6 3.2 0.00 0.00 0.00 91 1018.6
20260507203006 13 77 1.6 3.2 0.00 0.00 0.00 91 1018.5
20260507202503 13 81 1.6 1.6 0.00 0.00 0.00 91 1018.4
20260507202004 13 81 0.0 1.6 0.00 0.00 0.00 91 1018.4
20260507201503 13 81 1.6 3.2 0.00 0.00 0.00 91 1018.5
20260507201003 13 81 1.6 3.2 0.00 0.00 0.00 91 1017.9
20260507200503 13 81 0.0 3.2 0.00 0.00 0.00 90 1018.0
20260507200004 14 81 0.0 1.6 0.00 0.00 0.00 90 1017.7
20260507195504 14 80 0.0 3.2 0.00 0.00 0.00 90 1018.0
20260507195218 14 80 1.6 3.2 0.00 0.00 0.00 90 1018.0
20260507194504 14 81 1.6 3.2 0.00 0.00 0.00 90 1018.0
20260507194003 14 0 0.0 0.0 0.00 0.00 0.00 89 1018.0
20260507193504 14 0 0.0 0.0 0.00 0.00 0.00 87 1017.7
20260507193214 15 0 0.0 0.0 0.00 0.00 0.00 87 1017.9
20260507192503 15 0 0.0 0.0 0.00 0.00 0.00 87 1017.7
20260507192216 15 0 0.0 0.0 0.00 0.00 0.00 87 1017.7
20260507191503 15 0 0.0 0.0 0.00 0.00 0.00 86 1017.6
20260507191003 15 0 0.0 0.0 0.00 0.00 0.00 86 1017.4
20260507190504 15 0 0.0 0.0 0.00 0.00 0.00 86 1017.7
20260507190217 15 0 0.0 0.0 0.00 0.00 0.00 86 1017.3
20260507185503 15 0 0.0 0.0 0.00 0.00 0.00 85 1017.3
20260507185003 15 0 0.0 0.0 0.00 0.00 0.00 84 1017.2
20260507184504 15 0 0.0 0.0 0.00 0.00 0.00 83 1017.1
20260507184003 16 89 0.0 1.6 0.00 0.00 0.00 82 1017.4
20260507183504 15 92 1.6 3.2 0.00 0.00 0.00 82 1017.0
20260507183004 16 95 1.6 3.2 0.00 0.00 0.00 82 1016.9
20260507182504 16 97 1.6 3.2 0.00 0.00 0.00 81 1016.9
20260507182003 16 97 1.6 3.2 0.00 0.00 0.00 79 1016.7
20260507181504 16 98 0.0 3.2 0.00 0.00 0.00 78 1017.0
20260507181217 16 99 1.6 3.2 0.00 0.00 0.00 78 1016.9
20260507180503 17 99 1.6 3.2 0.00 0.00 0.00 76 1016.9
20260507180004 17 93 1.6 3.2 0.00 0.00 0.00 73 1016.8
20260507175504 17 87 1.6 3.2 0.00 0.00 0.00 71 1016.9
20260507175003 18 80 1.6 3.2 0.00 0.00 0.00 69 1016.6
20260507174503 18 50 1.6 4.8 0.00 0.00 0.00 66 1016.5
20260507174215 18 29 1.6 4.8 0.00 0.00 0.00 65 1016.8
20260507173503 19 40 0.0 3.2 0.00 0.00 0.00 62 1016.6
20260507173004 20 202 0.0 3.2 0.00 0.00 0.00 61 1016.6
20260507172503 20 237 1.6 4.8 0.00 0.00 0.00 60 1016.6
20260507172217 19 227 1.6 4.8 0.00 0.00 0.00 62 1016.5
20260507171504 19 216 3.2 4.8 0.00 0.00 0.00 64 1016.6
20260507171003 18 212 3.2 4.8 0.00 0.00 0.00 65 1016.7
20260507170503 18 192 1.6 3.2 0.00 0.00 0.00 65 1016.7
20260507170005 19 172 1.6 3.2 0.00 0.00 0.00 65 1016.6
20260507165504 18 161 1.6 3.2 0.00 0.00 0.00 67 1016.7
20260507165004 18 148 0.0 3.2 0.00 0.00 0.00 67 1016.5
20260507164504 18 141 0.0 4.8 0.00 0.00 0.00 66 1016.5
20260507164003 18 178 1.6 6.4 0.00 0.00 0.00 66 1016.6
20260507163503 18 189 4.8 9.7 0.00 0.05 0.00 67 1016.6
20260507163216 18 182 4.8 9.7 0.00 0.10 0.00 66 1016.5
20260507162504 18 170 3.2 6.4 0.00 0.15 0.00 66 1016.5
20260507162003 18 169 3.2 4.8 0.00 0.15 0.00 65 1016.7
20260507161715 18 175 3.2 4.8 0.00 0.15 0.00 65 1016.6
20260507161003 18 159 4.8 9.7 0.00 0.15 0.00 65 1016.6
20260507160505 18 155 3.2 9.7 0.00 0.15 0.00 65 1016.4
20260507160004 18 178 3.2 6.4 0.00 0.15 0.00 64 1016.4
20260507155503 18 204 3.2 6.4 0.00 0.15 0.00 62 1016.9
20260507155003 18 207 4.8 9.7 0.00 0.15 0.00 61 1016.7
20260507154504 18 187 3.2 9.7 0.00 0.15 0.00 61 1016.7
20260507154216 18 194 4.8 9.7 0.00 0.15 0.00 60 1016.6
20260507153714 18 200 4.8 12.9 0.00 0.15 0.00 60 1016.4
20260507153003 18 217 6.4 14.5 0.00 0.15 0.00 58 1016.6
20260507152504 19 211 8.0 16.1 0.00 0.15 0.00 57 1016.4
20260507152004 19 210 11.3 16.1 0.00 0.15 0.00 56 1016.3
20260507151504 19 219 9.7 16.1 0.00 0.15 0.00 55 1016.3
20260507151003 20 203 8.0 16.1 0.00 0.15 0.00 55 1016.0
20260507150504 20 166 8.0 17.7 0.00 0.15 0.00 60 1016.1
20260507150005 19 161 9.7 17.7 0.00 0.15 0.00 60 1015.8
20260507145713 19 167 9.7 17.7 0.00 0.15 0.00 59 1015.6
20260507145003 19 168 11.3 20.9 0.00 0.15 0.00 59 1015.4
20260507144714 20 174 9.7 20.9 0.00 0.15 0.00 60 1015.7
20260507144003 20 211 9.7 17.7 0.00 0.15 0.00 60 1015.6
20260507143504 20 213 11.3 17.7 0.00 0.15 0.00 57 1015.4
20260507143003 20 193 12.9 20.9 0.00 0.15 0.00 56 1015.6
20260507142503 20 180 12.9 20.9 0.00 0.15 0.00 59 1015.7
20260507142003 20 188 12.9 20.9 0.00 0.15 0.00 58 1015.4
20260507141716 20 184 12.9 20.9 0.00 0.15 0.00 63 1015.5
20260507141007 19 187 12.9 20.9 0.00 0.15 0.00 66 1015.5
20260507140503 20 199 9.7 20.9 0.00 0.15 0.00 68 1015.5
20260507140004 20 208 9.7 20.9 0.00 0.15 0.00 70 1015.9
20260507135503 20 209 9.7 20.9 0.00 0.15 0.00 70 1015.5
20260507135003 20 199 9.7 16.1 0.00 0.15 0.00 71 1015.5
20260507134503 20 184 8.0 14.5 0.00 0.15 0.00 74 1015.6
20260507134003 20 172 8.0 14.5 0.00 0.15 0.00 73 1015.5
20260507133503 19 175 8.0 16.1 0.00 0.15 0.00 76 1015.8
20260507133003 20 188 9.7 16.1 0.00 0.15 0.00 75 1015.9
20260507132503 18 197 9.7 16.1 0.00 0.15 0.00 77 1016.0
20260507132214 18 199 11.3 16.1 0.00 0.15 0.00 78 1015.8
20260507131503 19 189 9.7 16.1 0.00 0.15 0.00 76 1015.8
20260507131003 19 179 9.7 14.5 0.00 0.15 0.00 76 1015.7
20260507130503 19 179 8.0 14.5 0.00 0.15 0.00 74 1015.9
20260507130004 20 184 9.7 17.7 0.00 0.15 0.00 75 1015.8
20260507125714 19 191 9.7 17.7 0.00 0.15 0.00 73 1015.7
20260507125004 19 185 9.7 17.7 0.00 0.15 0.00 78 1015.9
20260507124503 19 193 8.0 16.1 0.00 0.15 0.00 72 1016.0
20260507124003 19 196 8.0 16.1 0.00 0.15 0.00 74 1015.8
20260507123504 19 194 8.0 14.5 0.00 0.15 0.00 74 1016.1
20260507123004 20 203 9.7 14.5 0.00 0.15 0.00 74 1015.9
20260507122503 19 204 9.7 14.5 0.00 0.15 0.00 76 1015.8
20260507122004 19 188 8.0 17.7 0.00 0.15 0.00 76 1015.9
20260507121504 19 182 8.0 17.7 0.00 0.15 0.00 77 1016.1
20260507121003 20 178 6.4 16.1 0.00 0.15 0.00 74 1015.8
20260507120503 20 185 8.0 16.1 0.00 0.15 0.00 74 1015.8
20260507120004 19 198 9.7 16.1 0.00 0.15 0.00 76 1015.9
20260507115504 19 187 9.7 16.1 0.00 0.15 0.00 76 1015.9
20260507115212 19 179 8.0 16.1 0.00 0.15 0.00 75 1015.9
20260507114715 19 165 8.0 16.1 0.00 0.15 0.00 75 1016.0
20260507114003 19 160 6.4 16.1 0.00 0.15 0.00 74 1016.1
20260507113503 20 175 6.4 16.1 0.00 0.15 0.00 74 1016.1
20260507113005 19 185 8.0 20.9 0.00 0.23 0.00 75 1016.1
20260507112503 19 176 8.0 20.9 0.00 0.23 0.00 75 1016.2
20260507112215 19 173 9.7 20.9 0.00 0.23 0.00 75 1016.1
20260507111504 19 165 9.7 16.1 0.00 0.23 0.00 75 1015.9
20260507111003 19 179 9.7 17.7 0.00 0.23 0.00 73 1016.0
20260507110714 19 183 9.7 17.7 0.00 0.23 0.00 74 1016.2
20260507110217 18 203 9.7 16.1 0.00 0.23 0.00 74 1016.5
20260507105503 19 189 9.7 16.1 0.00 0.23 0.00 71 1016.4
20260507105213 19 187 9.7 20.9 0.00 0.23 0.00 71 1016.3
20260507104504 19 185 9.7 20.9 0.00 0.23 0.00 71 1016.3
20260507104004 18 171 9.7 17.7 0.00 0.23 0.00 74 1016.5
20260507103503 19 177 9.7 17.7 0.00 0.25 0.00 72 1016.3
20260507103003 19 174 9.7 17.7 0.00 0.25 0.00 72 1016.4
20260507102503 19 176 8.0 17.7 0.00 0.25 0.00 71 1016.5
20260507102216 19 174 8.0 17.7 0.00 0.25 0.00 69 1016.5
20260507101503 19 183 9.7 16.1 0.00 0.25 0.00 69 1016.3
20260507101003 18 198 11.3 22.5 0.00 0.25 0.00 70 1016.3
20260507100503 18 204 12.9 22.5 0.00 0.25 0.00 71 1016.1
20260507100004 18 190 11.3 24.1 0.00 0.25 0.00 70 1016.5
20260507095503 18 174 11.3 24.1 0.00 0.25 0.00 71 1016.4
20260507095214 19 176 11.3 24.1 0.00 0.25 0.00 70 1016.5
20260507094503 18 181 9.7 17.7 0.00 0.25 0.00 70 1016.4
20260507094003 19 174 9.7 16.1 0.00 0.25 0.00 71 1016.4
20260507093503 18 179 9.7 16.1 0.00 0.25 0.00 72 1016.3
20260507093004 19 175 9.7 16.1 0.00 0.25 0.00 71 1016.4
20260507092504 19 168 11.3 22.5 0.00 0.28 0.00 69 1016.2
20260507092003 18 176 11.3 22.5 0.00 0.28 0.00 70 1016.2
20260507091503 18 182 9.7 22.5 0.00 0.28 0.00 71 1016.3
20260507091003 19 175 9.7 22.5 0.00 0.28 0.00 70 1016.1
20260507090503 18 185 12.9 20.9 0.00 0.28 0.00 73 1016.3
20260507090005 18 188 12.9 24.1 0.00 0.28 0.00 73 1016.3
20260507085503 18 187 12.9 24.1 0.00 0.28 0.00 72 1016.2
20260507085215 18 183 12.9 24.1 0.00 0.28 0.00 72 1016.2
20260507084503 18 182 11.3 24.1 0.00 0.28 0.00 73 1016.5
20260507084215 18 192 12.9 24.1 0.00 0.28 0.00 73 1016.3
20260507083503 18 182 11.3 20.9 0.00 0.28 0.00 73 1016.2
20260507083004 18 171 9.7 20.9 0.00 0.28 0.00 74 1016.1
20260507082714 17 175 11.3 20.9 0.00 0.28 0.00 75 1016.1
20260507082004 19 162 11.3 22.5 0.00 0.33 0.00 73 1016.0
20260507081503 18 166 11.3 24.1 0.00 0.33 0.00 74 1015.8
20260507081003 18 166 11.3 24.1 0.00 0.33 0.00 74 1016.1
20260507080503 18 144 12.9 22.5 0.00 0.36 0.00 76 1015.9
20260507080005 18 137 12.9 24.1 0.00 0.38 0.00 78 1015.7
20260507075504 18 148 9.7 24.1 0.00 0.38 0.00 78 1015.8
20260507075003 18 154 8.0 16.1 0.00 0.41 0.00 78 1015.7
20260507074504 18 151 6.4 20.9 0.00 0.43 0.00 78 1015.9
20260507074216 18 158 6.4 20.9 0.00 0.43 0.00 78 1015.6
20260507073503 18 145 11.3 20.9 0.00 0.48 0.00 79 1015.8
20260507073004 18 144 9.7 17.7 0.00 0.51 0.00 79 1015.7
20260507072504 18 150 6.4 17.7 0.00 0.51 0.00 77 1015.5
20260507072004 18 148 6.4 14.5 0.00 0.51 0.00 77 1015.6
20260507071504 18 157 8.0 16.1 0.00 0.53 0.00 79 1015.4
20260507071003 17 163 8.0 16.1 0.00 0.58 0.00 82 1015.7
20260507070717 17 158 8.0 16.1 0.00 0.61 0.00 82 1015.7
20260507070215 17 165 6.4 12.9 0.00 0.64 0.00 83 1015.5
20260507065504 17 162 6.4 16.1 0.00 0.66 0.00 83 1015.6
20260507065003 17 144 6.4 16.1 0.00 0.69 0.00 81 1015.5
20260507064503 17 165 8.0 16.1 0.00 0.71 0.00 79 1015.4
20260507064003 17 176 8.0 16.1 0.00 0.71 0.00 78 1015.3
20260507063503 17 172 9.7 16.1 0.00 0.76 0.00 78 1015.3
20260507063004 17 170 9.7 17.7 0.00 0.76 0.00 79 1015.3
20260507062503 17 170 9.7 24.1 0.00 0.79 0.00 80 1015.1
20260507062003 17 170 9.7 24.1 0.00 0.84 0.00 81 1015.3
20260507061717 17 168 9.7 24.1 0.00 0.84 0.00 82 1015.0
20260507061003 17 147 9.7 17.7 0.00 0.86 0.00 82 1015.1
20260507060504 17 147 9.7 17.7 0.00 0.86 0.00 83 1015.0
20260507060005 17 146 8.0 14.5 0.00 0.86 0.00 84 1015.3
20260507055503 17 139 8.0 12.9 0.00 0.86 0.00 85 1015.1
20260507055003 16 140 6.4 12.9 0.00 0.89 0.00 85 1015.2
20260507054714 16 136 4.8 11.3 0.00 0.89 0.00 86 1015.1
20260507054003 16 135 4.8 6.4 0.00 0.89 0.00 88 1015.0
20260507053503 16 132 4.8 9.7 0.00 0.89 0.00 87 1014.7
20260507053004 16 127 4.8 9.7 0.00 0.97 0.00 88 1014.9
20260507052503 16 131 4.8 9.7 0.00 1.09 0.00 88 1014.9
20260507052003 16 134 4.8 6.4 0.00 1.22 0.00 87 1014.8
20260507051504 16 140 4.8 9.7 0.00 1.52 0.00 88 1014.8
20260507051003 16 137 4.8 9.7 0.00 1.63 0.00 88 1014.6
20260507050503 16 130 4.8 9.7 0.00 1.63 0.00 88 1014.6
20260507050216 16 133 4.8 9.7 0.00 1.63 0.00 88 1014.4
20260507045503 16 129 4.8 9.7 0.00 1.63 0.00 88 1014.6
20260507045004 16 119 6.4 11.3 0.00 1.63 0.00 88 1014.5
20260507044504 16 110 6.4 11.3 0.00 1.63 0.00 89 1014.5
20260507044213 16 108 4.8 11.3 0.00 1.63 0.00 89 1014.5
20260507043503 15 123 4.8 6.4 0.00 1.63 0.00 89 1014.4
20260507043003 15 122 4.8 6.4 0.00 1.63 0.00 90 1014.5
20260507042717 15 117 3.2 6.4 0.00 1.63 0.00 90 1014.5
20260507042003 15 113 1.6 4.8 0.00 1.63 0.00 90 1014.4
20260507041503 15 118 1.6 3.2 0.00 1.63 0.00 90 1014.3
20260507041004 15 125 1.6 3.2 0.00 1.63 0.00 90 1014.3
20260507040503 15 130 1.6 3.2 0.00 1.63 0.00 91 1014.3
20260507040004 15 128 3.2 4.8 0.00 1.63 0.00 91 1014.2
20260507035503 15 123 3.2 4.8 0.00 1.63 0.00 91 1014.1
20260507035213 15 119 3.2 4.8 0.00 1.63 0.00 91 1014.4
20260507034503 15 121 3.2 4.8 0.00 1.63 0.00 91 1014.0
20260507034003 15 122 3.2 4.8 0.00 1.63 0.00 91 1014.3
20260507033716 15 117 3.2 6.4 0.00 1.63 0.00 91 1014.3
20260507033003 15 114 4.8 9.7 0.00 1.63 0.00 91 1014.3
20260507032717 15 116 4.8 9.7 0.00 1.63 0.00 91 1014.1
20260507032003 15 124 4.8 9.7 0.00 1.63 0.00 91 1014.1
20260507031503 15 127 4.8 9.7 0.00 1.63 0.00 91 1014.2
20260507031216 15 128 4.8 9.7 0.00 1.63 0.00 91 1014.2
20260507030714 15 129 3.2 6.4 0.00 1.63 0.00 91 1014.0
20260507030003 15 132 3.2 4.8 0.00 1.63 0.00 91 1014.2
20260507025503 15 139 3.2 6.4 0.00 1.63 0.00 91 1014.0
20260507025003 15 142 3.2 6.4 0.00 1.63 0.00 91 1014.0
20260507024503 15 136 4.8 6.4 0.00 1.63 0.00 90 1014.0
20260507024214 15 136 4.8 6.4 0.00 1.63 0.00 90 1014.2
20260507023503 16 145 4.8 9.7 0.00 1.63 0.00 89 1014.2
20260507023003 16 147 4.8 11.3 0.00 1.63 0.00 89 1014.2
20260507022503 16 150 6.4 11.3 0.00 1.63 0.00 89 1014.1
20260507022003 16 150 6.4 11.3 0.00 1.63 0.00 88 1014.0
20260507021714 16 149 4.8 11.3 0.00 1.63 0.00 88 1014.2
20260507021003 16 152 4.8 11.3 0.00 1.63 0.00 88 1014.3
20260507020715 16 158 4.8 11.3 0.00 1.63 0.00 88 1014.2
20260507020004 16 158 4.8 11.3 0.00 1.63 0.00 89 1014.4
20260507015504 16 154 4.8 11.3 0.00 1.63 0.00 89 1014.3
20260507015004 16 163 4.8 11.3 0.00 1.63 0.00 89 1014.4
20260507014503 16 167 6.4 12.9 0.00 1.63 0.00 89 1014.2
20260507014215 16 167 4.8 12.9 0.00 1.63 0.00 89 1014.1
20260507013503 16 158 6.4 14.5 0.00 1.63 0.00 88 1014.1
20260507013004 16 157 6.4 14.5 0.00 1.63 0.00 88 1014.1
20260507012503 16 165 4.8 11.3 0.00 1.63 0.00 87 1014.1
20260507012003 16 166 6.4 11.3 0.00 1.63 0.00 87 1014.0
20260507011504 16 161 6.4 11.3 0.00 1.63 0.00 87 1014.1
20260507010503 16 156 6.4 14.5 0.00 1.63 0.00 87 1014.1
20260507010004 16 153 6.4 14.5 0.00 1.63 0.00 87 1014.3
20260507005503 16 151 6.4 12.9 0.00 1.63 0.00 86 1014.1
20260507005003 16 151 6.4 12.9 0.00 1.63 0.00 86 1014.1
20260507004717 16 156 6.4 14.5 0.00 1.63 0.00 86 1014.1
20260507004003 16 158 6.4 14.5 0.00 1.63 0.00 85 1014.3
20260507003504 16 160 6.4 12.9 0.00 1.63 0.00 86 1014.4
20260507003004 16 168 6.4 12.9 0.00 1.63 0.00 86 1014.3
20260507002504 16 165 4.8 12.9 0.00 1.63 0.00 86 1014.2
20260507002003 16 151 6.4 14.5 0.00 1.63 0.00 86 1014.2
20260507001503 16 151 6.4 14.5 0.00 1.63 0.00 86 1014.3
20260507001003 16 162 6.4 14.5 0.00 1.63 0.00 86 1014.1
20260507000505 16 149 8.0 20.9 0.00 1.63 0.00 86 1014.1
20260507000008 16 143 9.7 20.9 0.00 1.63 0.00 85 1014.3
20260506235503 16 146 8.0 16.1 0.00 1.63 1.63 86 1014.2
20260506235003 16 146 8.0 16.1 0.00 1.63 1.63 86 1014.3
20260506234713 16 146 6.4 16.1 0.00 1.63 1.63 86 1014.3
20260506234003 15 145 6.4 11.3 0.00 1.63 1.63 87 1014.5
20260506233503 15 136 6.4 11.3 0.00 1.63 1.63 87 1014.4
20260506233003 15 126 6.4 11.3 0.00 1.63 1.63 87 1014.3
20260506232503 15 133 6.4 11.3 0.00 1.63 1.63 87 1014.5
20260506232003 15 129 4.8 9.7 0.00 1.63 1.63 87 1014.5
20260506231503 15 124 4.8 9.7 0.00 1.63 1.63 87 1014.4
20260506231003 15 134 4.8 9.7 0.00 1.63 1.63 87 1014.6
20260506230503 15 134 4.8 9.7 0.00 1.63 1.63 87 1014.7
20260506230006 15 135 4.8 11.3 0.00 1.63 1.63 87 1014.6